| time (UTC) | temp F | wind direction | speed knots | gust knots | rain 1hr in | rain 24hr in | rain mn in | humidity % | barometer mb |
| 20260510021929 | 55 | 45 | 1.7 | 6.1 | 0.00 | 0.17 | 0.15 | 90 | 1012.0 |
| 20260510020928 | 56 | 45 | 4.3 | 7.0 | 0.00 | 0.18 | 0.15 | 84 | 1011.4 |
| 20260510015928 | 59 | 0 | 3.5 | 11.3 | 0.00 | 0.18 | 0.15 | 73 | 1011.7 |
| 20260510014927 | 59 | 45 | 0.0 | 0.9 | 0.00 | 0.18 | 0.15 | 71 | 1010.1 |
| 20260510013927 | 59 | 225 | 0.0 | 0.0 | 0.00 | 0.18 | 0.15 | 71 | 1009.5 |
| 20260510012927 | 59 | 270 | 0.0 | 0.0 | 0.00 | 0.18 | 0.15 | 70 | 1009.2 |
| 20260510011926 | 59 | 247 | 0.0 | 0.0 | 0.00 | 0.18 | 0.15 | 69 | 1009.2 |
| 20260510010926 | 59 | 202 | 0.0 | 0.0 | 0.00 | 0.18 | 0.15 | 68 | 1009.0 |
| 20260510005925 | 60 | 225 | 0.0 | 0.9 | 0.00 | 0.18 | 0.15 | 68 | 1008.9 |
| 20260510004925 | 60 | 135 | 0.0 | 1.7 | 0.00 | 0.18 | 0.15 | 67 | 1009.1 |
| 20260510003925 | 61 | 225 | 0.0 | 1.7 | 0.00 | 0.18 | 0.15 | 66 | 1009.0 |
| 20260510002925 | 61 | 337 | 0.0 | 4.3 | 0.00 | 0.18 | 0.15 | 65 | 1008.9 |
| 20260510002040 | 61 | 202 | 0.9 | 2.6 | 0.00 | 0.18 | 0.15 | 65 | 1008.8 |
| 20260510000924 | 62 | 315 | 0.0 | 1.7 | 0.00 | 0.18 | 0.15 | 65 | 1008.7 |
| 20260509235923 | 63 | 225 | 0.9 | 1.7 | 0.00 | 0.18 | 0.15 | 64 | 1008.5 |
| 20260509234923 | 64 | 112 | 0.0 | 1.7 | 0.00 | 0.18 | 0.15 | 64 | 1008.5 |
| 20260509233922 | 64 | 180 | 0.0 | 1.7 | 0.00 | 0.18 | 0.15 | 63 | 1008.4 |
| 20260509232921 | 65 | 112 | 0.9 | 3.5 | 0.00 | 0.18 | 0.15 | 61 | 1008.3 |
| 20260509231920 | 66 | 112 | 0.0 | 3.5 | 0.00 | 0.18 | 0.15 | 61 | 1008.3 |
| 20260509230920 | 66 | 45 | 0.9 | 4.3 | 0.00 | 0.18 | 0.15 | 60 | 1008.2 |
| 20260509230035 | 66 | 157 | 1.7 | 3.5 | 0.00 | 0.18 | 0.15 | 60 | 1008.1 |
| 20260509225034 | 66 | 180 | 1.7 | 3.5 | 0.00 | 0.18 | 0.15 | 62 | 1008.0 |
| 20260509223919 | 66 | 180 | 2.6 | 7.0 | 0.00 | 0.18 | 0.15 | 59 | 1007.9 |
| 20260509222918 | 66 | 337 | 0.9 | 3.5 | 0.00 | 0.18 | 0.15 | 60 | 1007.9 |
| 20260509221917 | 66 | 157 | 1.7 | 2.6 | 0.00 | 0.18 | 0.15 | 61 | 1008.0 |
| 20260509220916 | 67 | 202 | 0.9 | 2.6 | 0.00 | 0.18 | 0.15 | 60 | 1008.2 |
| 20260509215916 | 68 | 292 | 1.7 | 3.5 | 0.00 | 0.18 | 0.15 | 59 | 1008.5 |
| 20260509214915 | 69 | 157 | 2.6 | 3.5 | 0.00 | 0.18 | 0.15 | 55 | 1008.3 |
| 20260509213915 | 70 | 247 | 1.7 | 3.5 | 0.00 | 0.18 | 0.15 | 56 | 1008.3 |
| 20260509212915 | 70 | 202 | 1.7 | 5.2 | 0.00 | 0.18 | 0.15 | 54 | 1008.4 |
| 20260509211913 | 71 | 45 | 1.7 | 3.5 | 0.00 | 0.18 | 0.15 | 56 | 1008.6 |
| 20260509210913 | 71 | 247 | 1.7 | 2.6 | 0.00 | 0.18 | 0.15 | 54 | 1008.5 |
| 20260509205913 | 69 | 225 | 1.7 | 7.0 | 0.00 | 0.18 | 0.15 | 57 | 1008.6 |
| 20260509204913 | 67 | 112 | 2.6 | 4.3 | 0.00 | 0.18 | 0.15 | 60 | 1008.9 |
| 20260509204026 | 68 | 135 | 0.9 | 3.5 | 0.00 | 0.18 | 0.15 | 61 | 1009.0 |
| 20260509202911 | 69 | 180 | 0.9 | 4.3 | 0.00 | 0.18 | 0.15 | 61 | 1009.0 |
| 20260509201910 | 70 | 225 | 1.7 | 4.3 | 0.00 | 0.18 | 0.15 | 58 | 1009.1 |
| 20260509200910 | 69 | 270 | 1.7 | 4.3 | 0.00 | 0.18 | 0.15 | 59 | 1009.2 |
| 20260509195910 | 68 | 112 | 0.9 | 4.3 | 0.00 | 0.18 | 0.15 | 61 | 1009.3 |
| 20260509195024 | 67 | 180 | 1.7 | 2.6 | 0.00 | 0.19 | 0.15 | 67 | 1009.4 |
| 20260509193908 | 67 | 22 | 1.7 | 4.3 | 0.00 | 0.19 | 0.15 | 66 | 1009.5 |
| 20260509193023 | 67 | 135 | 1.7 | 3.5 | 0.00 | 0.19 | 0.15 | 68 | 1009.5 |
| 20260509191907 | 66 | 337 | 0.0 | 3.5 | 0.00 | 0.19 | 0.15 | 72 | 1009.7 |
| 20260509190907 | 65 | 202 | 1.7 | 3.5 | 0.00 | 0.19 | 0.15 | 71 | 1009.9 |
| 20260509185907 | 64 | 270 | 0.9 | 1.7 | 0.00 | 0.19 | 0.15 | 72 | 1010.0 |
| 20260509185021 | 65 | 270 | 0.9 | 2.6 | 0.00 | 0.19 | 0.15 | 74 | 1010.1 |
| 20260509183906 | 65 | 90 | 1.7 | 3.5 | 0.00 | 0.19 | 0.15 | 74 | 1010.1 |
| 20260509183020 | 65 | 292 | 2.6 | 3.5 | 0.00 | 0.19 | 0.15 | 75 | 1010.2 |
| 20260509181904 | 62 | 202 | 1.7 | 3.5 | 0.00 | 0.19 | 0.15 | 81 | 1010.4 |
| 20260509180904 | 63 | 337 | 0.0 | 2.6 | 0.00 | 0.19 | 0.15 | 81 | 1010.4 |
| 20260509175903 | 62 | 45 | 0.0 | 2.6 | 0.00 | 0.19 | 0.15 | 83 | 1010.5 |
| 20260509174903 | 61 | 202 | 1.7 | 2.6 | 0.00 | 0.19 | 0.15 | 84 | 1010.4 |
| 20260509173902 | 61 | 180 | 0.9 | 3.5 | 0.00 | 0.19 | 0.15 | 84 | 1010.5 |
| 20260509172902 | 62 | 270 | 0.0 | 3.5 | 0.00 | 0.19 | 0.15 | 82 | 1010.4 |
| 20260509171901 | 63 | 225 | 0.9 | 4.3 | 0.00 | 0.19 | 0.15 | 80 | 1010.3 |
| 20260509170900 | 61 | 112 | 0.9 | 2.6 | 0.00 | 0.19 | 0.15 | 87 | 1010.2 |
| 20260509165900 | 63 | 315 | 1.7 | 3.5 | 0.00 | 0.19 | 0.15 | 84 | 1010.2 |
| 20260509165015 | 61 | 225 | 0.9 | 2.6 | 0.00 | 0.19 | 0.15 | 87 | 1010.1 |
| 20260509163900 | 63 | 270 | 0.9 | 3.5 | 0.00 | 0.19 | 0.15 | 84 | 1010.0 |
| 20260509162859 | 62 | 270 | 0.9 | 2.6 | 0.00 | 0.19 | 0.15 | 90 | 1010.0 |
| 20260509162014 | 58 | 202 | 0.9 | 4.3 | 0.00 | 0.19 | 0.15 | 96 | 1010.2 |
| 20260509160858 | 59 | 202 | 1.7 | 2.6 | 0.00 | 0.19 | 0.15 | 98 | 1010.3 |
| 20260509155858 | 60 | 157 | 0.0 | 1.7 | 0.00 | 0.19 | 0.15 | 96 | 1010.1 |
| 20260509155013 | 58 | 225 | 1.7 | 3.5 | 0.01 | 0.19 | 0.15 | 99 | 1010.1 |
| 20260509153856 | 56 | 90 | 0.0 | 1.7 | 0.01 | 0.19 | 0.15 | 99 | 1010.2 |
| 20260509152856 | 54 | 180 | 0.0 | 3.5 | 0.01 | 0.19 | 0.15 | 99 | 1010.2 |
| 20260509151855 | 54 | 157 | 0.9 | 2.6 | 0.01 | 0.19 | 0.15 | 99 | 1010.2 |
| 20260509150855 | 53 | 45 | 0.0 | 0.9 | 0.01 | 0.19 | 0.15 | 99 | 1010.0 |
| 20260509145854 | 53 | 202 | 0.0 | 5.2 | 0.01 | 0.19 | 0.15 | 99 | 1010.3 |
| 20260509144853 | 53 | 180 | 0.0 | 0.9 | 0.00 | 0.18 | 0.14 | 99 | 1010.3 |
| 20260509143853 | 53 | 157 | 0.0 | 1.7 | 0.00 | 0.18 | 0.14 | 99 | 1010.3 |
| 20260509143007 | 53 | 112 | 0.0 | 1.7 | 0.00 | 0.18 | 0.14 | 99 | 1010.2 |
| 20260509141851 | 52 | 112 | 0.0 | 0.9 | 0.00 | 0.18 | 0.14 | 99 | 1010.2 |
| 20260509140852 | 52 | 67 | 0.0 | 0.9 | 0.01 | 0.18 | 0.14 | 99 | 1010.3 |
| 20260509140007 | 51 | 202 | 0.0 | 2.6 | 0.02 | 0.18 | 0.14 | 99 | 1010.4 |
| 20260509134851 | 51 | 225 | 0.0 | 0.9 | 0.03 | 0.18 | 0.14 | 99 | 1010.3 |
| 20260509133851 | 51 | 67 | 0.0 | 0.9 | 0.04 | 0.18 | 0.14 | 99 | 1010.5 |
| 20260509132850 | 51 | 225 | 0.0 | 2.6 | 0.04 | 0.18 | 0.14 | 99 | 1010.5 |
| 20260509132004 | 51 | 202 | 0.0 | 2.6 | 0.05 | 0.18 | 0.14 | 99 | 1010.6 |
| 20260509130848 | 50 | 45 | 0.0 | 1.7 | 0.05 | 0.17 | 0.13 | 99 | 1010.6 |
| 20260509125848 | 50 | 225 | 0.0 | 0.9 | 0.05 | 0.16 | 0.12 | 99 | 1010.6 |
| 20260509124848 | 50 | 112 | 0.0 | 0.9 | 0.05 | 0.15 | 0.11 | 99 | 1010.6 |
| 20260509123847 | 50 | 90 | 0.0 | 0.9 | 0.04 | 0.14 | 0.10 | 99 | 1010.7 |
| 20260509122847 | 50 | 202 | 0.0 | 0.9 | 0.05 | 0.14 | 0.10 | 99 | 1010.7 |
| 20260509121847 | 50 | 202 | 0.0 | 0.9 | 0.05 | 0.13 | 0.09 | 99 | 1010.7 |
| 20260509120846 | 50 | 157 | 0.0 | 0.9 | 0.06 | 0.12 | 0.08 | 99 | 1010.8 |
| 20260509120000 | 50 | 292 | 0.0 | 1.7 | 0.05 | 0.11 | 0.07 | 99 | 1010.8 |
| 20260509114846 | 50 | 157 | 0.0 | 1.7 | 0.04 | 0.10 | 0.06 | 99 | 1010.7 |
| 20260509113846 | 50 | 292 | 0.0 | 0.9 | 0.05 | 0.10 | 0.06 | 99 | 1010.7 |
| 20260509112844 | 49 | 90 | 0.0 | 1.7 | 0.04 | 0.09 | 0.05 | 99 | 1010.6 |
| 20260509112000 | 49 | 202 | 0.0 | 2.6 | 0.03 | 0.08 | 0.04 | 99 | 1010.5 |
| 20260509110844 | 49 | 22 | 0.0 | 2.6 | 0.01 | 0.06 | 0.02 | 99 | 1010.5 |
| 20260509105843 | 49 | 202 | 0.0 | 1.7 | 0.01 | 0.06 | 0.02 | 99 | 1010.4 |
| 20260509104843 | 49 | 22 | 0.0 | 2.6 | 0.01 | 0.06 | 0.02 | 99 | 1010.3 |
| 20260509103843 | 48 | 247 | 0.0 | 0.9 | 0.00 | 0.05 | 0.01 | 99 | 1010.3 |
| 20260509102842 | 48 | 270 | 0.0 | 0.9 | 0.00 | 0.05 | 0.01 | 99 | 1010.2 |
| 20260509101841 | 48 | 112 | 0.0 | 0.0 | 0.01 | 0.05 | 0.01 | 99 | 1010.3 |
| 20260509100955 | 48 | 112 | 0.0 | 0.0 | 0.01 | 0.05 | 0.01 | 99 | 1010.3 |
| 20260509095840 | 48 | 202 | 0.0 | 0.0 | 0.01 | 0.05 | 0.01 | 99 | 1010.4 |
| 20260509094955 | 48 | 67 | 0.0 | 0.0 | 0.01 | 0.05 | 0.01 | 99 | 1010.4 |
| 20260509093955 | 47 | 202 | 0.0 | 0.0 | 0.01 | 0.05 | 0.01 | 99 | 1010.5 |
| 20260509092839 | 47 | 45 | 0.0 | 0.0 | 0.01 | 0.05 | 0.01 | 99 | 1010.6 |
| 20260509091953 | 47 | 270 | 0.0 | 0.0 | 0.00 | 0.04 | 0.00 | 99 | 1010.8 |
| 20260509090953 | 47 | 202 | 0.0 | 0.0 | 0.00 | 0.04 | 0.00 | 99 | 1010.8 |
| 20260509085837 | 47 | 202 | 0.0 | 0.0 | 0.00 | 0.04 | 0.00 | 99 | 1010.8 |
| 20260509084952 | 47 | 270 | 0.0 | 0.0 | 0.00 | 0.04 | 0.00 | 99 | 1010.9 |
| 20260509083836 | 47 | 112 | 0.0 | 0.0 | 0.00 | 0.04 | 0.00 | 99 | 1010.9 |
| 20260509082950 | 47 | 225 | 0.0 | 0.0 | 0.00 | 0.04 | 0.00 | 99 | 1011.0 |
| 20260509081837 | 47 | 247 | 0.0 | 0.0 | 0.00 | 0.04 | 0.00 | 99 | 1010.9 |
| 20260509080834 | 47 | 180 | 0.0 | 0.0 | 0.00 | 0.04 | 0.00 | 99 | 1010.8 |
| 20260509075948 | 47 | 225 | 0.0 | 0.0 | 0.00 | 0.04 | 0.00 | 99 | 1010.9 |
| 20260509074834 | 48 | 157 | 0.0 | 0.0 | 0.00 | 0.04 | 0.00 | 99 | 1010.8 |
| 20260509073948 | 48 | 202 | 0.0 | 0.0 | 0.00 | 0.04 | 0.00 | 99 | 1010.9 |
| 20260509072947 | 47 | 225 | 0.0 | 0.0 | 0.00 | 0.04 | 0.00 | 99 | 1010.9 |
| 20260509071946 | 47 | 225 | 0.0 | 0.0 | 0.00 | 0.04 | 0.00 | 99 | 1010.7 |
| 20260509070946 | 47 | 270 | 0.0 | 0.0 | 0.00 | 0.04 | 0.00 | 99 | 1010.8 |
| 20260509065831 | 48 | 225 | 0.0 | 0.0 | 0.00 | 0.04 | 0.00 | 99 | 1010.7 |
| 20260509064830 | 48 | 225 | 0.0 | 0.0 | 0.00 | 0.04 | 0.00 | 99 | 1010.9 |
| 20260509063828 | 48 | 180 | 0.0 | 0.0 | 0.00 | 0.04 | 0.00 | 99 | 1010.9 |
| 20260509062944 | 48 | 135 | 0.0 | 0.0 | 0.00 | 0.04 | 0.00 | 99 | 1011.0 |
| 20260509061943 | 48 | 112 | 0.0 | 0.0 | 0.00 | 0.04 | 0.00 | 99 | 1011.2 |
| 20260509060828 | 48 | 112 | 0.0 | 0.0 | 0.00 | 0.04 | 0.00 | 99 | 1011.3 |
| 20260509055827 | 48 | 112 | 0.0 | 0.0 | 0.00 | 0.04 | 0.00 | 99 | 1011.5 |
| 20260509054827 | 48 | 112 | 0.0 | 0.0 | 0.00 | 0.04 | 0.00 | 99 | 1011.4 |
| 20260509053826 | 48 | 112 | 0.0 | 0.0 | 0.00 | 0.04 | 0.00 | 99 | 1011.6 |
| 20260509052825 | 48 | 157 | 0.0 | 0.0 | 0.00 | 0.04 | 0.00 | 99 | 1011.8 |
| 20260509051825 | 48 | 135 | 0.0 | 0.0 | 0.00 | 0.04 | 0.00 | 99 | 1011.9 |
| 20260509050824 | 48 | 135 | 0.0 | 0.0 | 0.00 | 0.04 | 0.00 | 99 | 1011.9 |
| 20260509045824 | 48 | 90 | 0.0 | 1.7 | 0.00 | 0.04 | 0.00 | 99 | 1011.9 |
| 20260509044823 | 48 | 112 | 0.9 | 1.7 | 0.00 | 0.04 | 0.00 | 99 | 1011.9 |
| 20260509043822 | 48 | 90 | 0.0 | 1.7 | 0.00 | 0.04 | 0.00 | 99 | 1012.0 |
| 20260509042821 | 48 | 90 | 0.9 | 1.7 | 0.00 | 0.04 | 0.00 | 99 | 1012.2 |
| 20260509041936 | 48 | 90 | 0.9 | 1.7 | 0.00 | 0.04 | 0.00 | 99 | 1012.4 |
| 20260509040820 | 48 | 90 | 0.9 | 1.7 | 0.00 | 0.04 | 0.00 | 99 | 1012.5 |
| 20260509035820 | 48 | 112 | 0.0 | 1.7 | 0.00 | 0.04 | 0.04 | 99 | 1012.6 |
| 20260509034819 | 48 | 112 | 0.9 | 1.7 | 0.01 | 0.04 | 0.04 | 99 | 1012.8 |
| 20260509033933 | 48 | 112 | 0.0 | 0.9 | 0.01 | 0.04 | 0.04 | 99 | 1013.0 |
| 20260509032818 | 49 | 112 | 0.0 | 0.0 | 0.02 | 0.04 | 0.04 | 99 | 1013.1 |
| 20260509031932 | 49 | 112 | 0.0 | 0.9 | 0.02 | 0.04 | 0.04 | 99 | 1013.3 |
| 20260509030932 | 49 | 112 | 0.0 | 0.0 | 0.03 | 0.04 | 0.04 | 99 | 1013.3 |
| 20260509025817 | 49 | 180 | 0.0 | 0.0 | 0.03 | 0.04 | 0.04 | 99 | 1013.5 |
| 20260509024930 | 49 | 112 | 0.0 | 0.0 | 0.02 | 0.03 | 0.03 | 99 | 1013.7 |
| 20260509023815 | 49 | 202 | 0.0 | 0.0 | 0.02 | 0.03 | 0.03 | 99 | 1013.7 |